Flag for Madagascar Weather past 2 weeks in Toamasina, Madagascar

Now
81 °F

Passing clouds.


Feels Like: 86 °F
Forecast: 72 / 88 °F
Wind: No wind

Location: Tamatave

Current Time: Mar 30, 2015 at 7:35:45 PM

Latest Report: Mar 30, 2015 at 7:00 PM


Visibility: N/A

Pressure: 29.89 "Hg

Humidity: 84%

Dew point: 75 °F

Location of ToamasinaLocation

Historic Weather in Toamasina — Graph

°F

Toamasina temperature yesterday

Maximum temperature yesterday: 86 °F (at 10:00 AM)
Minimum temperature yesterday: 73 °F (at 3:00 AM)
Average temperature yesterday: 79 °F

Past Weeks' High & Low Weather Summary

 TemperatureHumidityPressure
High88 °F (Mar 19, 12:00 PM)100% (Mar 17, 2:00 AM)30.07 "Hg (Mar 17, 2:00 AM)
Low70 °F (Mar 18, 4:00 AM)59% (Mar 30, 12:00 PM)29.86 "Hg (Mar 30, 2:00 PM)
Average79 °F84%29.98 "Hg
* Reported Mar 15 6:00 PM — Mar 30 6:00 PM, Toamasina, Weather by CustomWeather, © 2015

Note: Actual official high and low records may vary slightly from our data, if they occured in-between our weather recording intervals... More about our weather records

Advertising

Toamasina weather history for previous 24 hours

 ConditionsComfort  
Time TempWeatherWind HumidityBarometerVisibility
6:00 PM
Mon, Mar 30
82 °FPassing clouds.2 mph84%29.89 "HgN/A
5:00 PM84 °FPartly sunny.5 mph74%29.89 "HgN/A
4:00 PM84 °FPartly sunny.7 mph74%29.86 "HgN/A
3:00 PM84 °FPartly sunny.7 mph74%29.86 "HgN/A
2:00 PM86 °FPartly sunny.9 mph70%29.86 "HgN/A
1:00 PM88 °FPartly sunny.9 mph59%29.89 "HgN/A
12:00 PM88 °FBroken clouds.7 mph59%29.89 "HgN/A
11:00 AM88 °FBroken clouds.5 mph62%29.92 "HgN/A
10:00 AM86 °FBroken clouds.5 mph62%29.95 "HgN/A
9:00 AM82 °FPartly sunny.2 mph74%29.95 "HgN/A
8:00 AM79 °FPartly sunny.2 mph79%29.95 "HgN/A
7:00 AM73 °FPartly sunny.No wind89%29.95 "HgN/A
6:00 AM72 °FPartly sunny.No wind94%29.92 "HgN/A
5:00 AM72 °FPassing clouds.No wind94%29.89 "HgN/A
4:00 AM72 °FScattered showers. Partly cloudy.No wind100%29.89 "HgN/A
3:00 AM73 °FScattered showers. Partly cloudy.No wind94%29.89 "HgN/A
2:00 AM72 °FPassing clouds.No wind100%29.89 "HgN/A
1:00 AM73 °FPassing clouds.No wind94%29.92 "HgN/A
12:00 AM73 °FPassing clouds.No wind94%29.92 "HgN/A
11:00 PM
Sun, Mar 29
73 °FPassing clouds.No wind94%29.92 "HgN/A
10:00 PM75 °FPassing clouds.No wind89%29.92 "HgN/A
9:00 PM75 °FPassing clouds.No wind89%29.92 "HgN/A
8:00 PM77 °FPassing clouds.No wind89%29.95 "HgN/A
7:00 PM79 °FPassing clouds.No wind84%29.92 "HgN/A
Weather by CustomWeather, © 2015

See weather overviewHow to use our weather pages